Tracking 20719 objects as of 24-May-2020
HD Live streaming from Space Station
objects crossing your sky now

FLOCK 2K 05

Track FLOCK 2K 05 now!
10-day predictions
FLOCK 2K 05 is classified as:


NORAD ID: 42864
Int'l Code: 2017-042AR
Perigee: 434.8 km
Apogee: 448.9 km
Inclination: 96.9 °
Period: 93.3 minutes
Semi major axis: 6812 km
RCS: Unknown
Launch date: July 14, 2017
Source: United States (US)
Launch site: TYURATAM MISSILE AND SPACE COMPLEX (TTMTR)
aabbcc
Your satellite tracking list
Your tracking list is empty




NASA's NSSDC Master Catalog

Two Line Element Set (TLE):
1 42864U 17042AR  20144.71390788 +.00005463 +00000-0 +12199-3 0  9995
2 42864 096.8945 015.1859 0010301 065.2297 295.0023 15.43866766160383
Source of the keplerian elements: AFSPC